Gillette, WY

10:18 AM MDT on March 24, 2017 (GMT -0600)
Gillette-Campbell County

Weather History for KGCC - December, 2011

Change the Weather History Date:

Thursday, December 29, 2011

  Actual Average Record
Temperature  
Mean Temperature 37 °F 25 °F  
Max Temperature 45 °F 36 °F 60 °F (1929)
Min Temperature 28 °F 13 °F -35 °F (1990)
Degree Days  
Heating Degree Days 28 40  
Month to date heating degree days 1111 1185  
Since 1 July heating degree days 2756 3060  
Moisture  
Dew Point 27 °F    
Average Humidity 55    
Maximum Humidity 70    
Minimum Humidity 40    
Precipitation  
Precipitation 0.17 in 0.02 in 0.30 in (1936)
Month to date precipitation 0.42 0.38  
Year to date precipitation 17.39 13.87  
Sea Level Pressure  
Sea Level Pressure 29.69 in    
Wind  
Wind Speed 17 mph (West)    
Max Wind Speed 36 mph    
Max Gust Speed 45 mph    
Visibility 8 miles    
Events Rain , Snow    
T = Trace of Precipitation, MM = Missing Value Source: NWS Daily Summary

Daily Weather History Graph

Daily Weather History Graph

Search for Another Location

Airport or City:

Trip Planner

Search our weather history database for the weather conditions in past years. The results will help you decide how hot, cold, wet, or windy it might be!

Date:

Astronomy

Dec. 29, 2011 Rise Set
Actual Time 7:37 AM MST 4:30 PM MST
Civil Twilight 7:04 AM MST 5:04 PM MST
Nautical Twilight 6:27 AM MST 5:40 PM MST
Astronomical Twilight 5:52 AM MST 6:16 PM MST
Moon 10:20 AM MST (12/29) 10:23 PM MST (12/29)
Length of Visible Light 9h 59m
Length of Day
8h 53m
Waxing Crescent, 27% of the Moon is Illuminated
Dec 29
Waxing Crescent
Dec 31
First Quarter
Jan 9
Full
Jan 16
Last Quarter
Jan 23
New

Hourly Weather History & Observations

Time (MST) Temp. Windchill Dew Point Humidity Pressure Visibility Wind Dir Wind Speed Gust Speed Precip Events Conditions
12:53 AM 39.9 °F 32.1 °F 28.9 °F 65% 29.72 in 10.0 mi SW 13.8 mph - N/A   Partly Cloudy
1:53 AM 39.9 °F 31.1 °F 30.0 °F 68% 29.69 in 10.0 mi SW 17.3 mph 24.2 mph N/A   Clear
2:53 AM 39.9 °F 32.1 °F 30.0 °F 68% 29.65 in 10.0 mi SSW 13.8 mph 24.2 mph N/A   Clear
3:53 AM 41.0 °F 31.4 °F 30.0 °F 65% 29.62 in 10.0 mi SW 21.9 mph 29.9 mph N/A   Scattered Clouds
4:53 AM 42.1 °F 33.6 °F 30.0 °F 62% 29.60 in 10.0 mi SW 18.4 mph 32.2 mph N/A   Partly Cloudy
5:53 AM 43.0 °F 34.8 °F 30.0 °F 60% 29.60 in 10.0 mi WSW 18.4 mph 29.9 mph N/A   Overcast
6:53 AM 42.1 °F 34.9 °F 30.0 °F 62% 29.60 in 10.0 mi West 13.8 mph 23.0 mph N/A   Mostly Cloudy
7:53 AM 44.6 °F 36.9 °F 30.2 °F 57% 29.56 in 10.0 mi SW 18.4 mph 26.5 mph N/A   Overcast
8:53 AM 44.1 °F 36.8 °F 30.0 °F 58% 29.56 in 10.0 mi WSW 16.1 mph 23.0 mph N/A   Overcast
9:53 AM 42.8 °F 36.2 °F 33.8 °F 70% 29.60 in 9.0 mi West 12.7 mph - N/A Rain Light Rain
10:43 AM 39.2 °F 29.6 °F 35.6 °F 87% 29.63 in 1.8 mi NW 19.6 mph 36.8 mph 0.05 in Rain Heavy Rain
10:48 AM 39.2 °F 29.3 °F 35.6 °F 87% 29.64 in 2.0 mi NW 20.7 mph 29.9 mph 0.06 in Rain Rain
10:53 AM 37.9 °F 24.7 °F 36.0 °F 93% 29.65 in 3.0 mi WNW 35.7 mph 44.9 mph 0.08 in Rain Rain
11:01 AM 37.4 °F 26.4 °F 35.6 °F 93% 29.66 in 2.5 mi NW 23.0 mph 44.9 mph 0.00 in Rain Light Rain
11:19 AM 35.6 °F 23.7 °F 33.8 °F 93% 29.66 in 2.5 mi NW 24.2 mph 40.3 mph 0.05 in Snow Light Snow
11:27 AM 35.6 °F 24.8 °F 33.8 °F 93% 29.65 in 5.0 mi WNW 19.6 mph 33.4 mph 0.07 in   Overcast
11:53 AM 37.0 °F 28.1 °F 30.9 °F 79% 29.64 in 9.0 mi NW 15.0 mph 32.2 mph 0.09 in   Mostly Cloudy
12:02 PM 37.4 °F 29.3 °F 30.2 °F 75% 29.61 in 10.0 mi WNW 12.7 mph - N/A   Mostly Cloudy
12:53 PM 41.0 °F 32.5 °F 32.0 °F 70% 29.61 in 10.0 mi NW 17.3 mph 24.2 mph N/A   Overcast
2:53 PM 42.8 °F 36.6 °F 26.6 °F 53% 29.66 in 10.0 mi WNW 11.5 mph - N/A   Clear
3:53 PM 41.0 °F 32.2 °F 21.0 °F 45% 29.70 in 10.0 mi NW 18.4 mph 35.7 mph N/A   Clear
4:53 PM 39.9 °F 30.5 °F 18.0 °F 41% 29.74 in 10.0 mi NW 19.6 mph 28.8 mph N/A   Partly Cloudy
5:53 PM 39.9 °F 30.2 °F 17.1 °F 40% 29.77 in 10.0 mi NW 20.7 mph 33.4 mph N/A   Partly Cloudy
6:53 PM 39.0 °F 30.3 °F 17.1 °F 41% 29.81 in 10.0 mi WNW 16.1 mph 26.5 mph N/A   Clear
7:53 PM 37.0 °F 28.1 °F 17.1 °F 44% 29.83 in 10.0 mi WNW 15.0 mph - N/A   Clear
8:53 PM 36.0 °F 26.7 °F 17.1 °F 46% 29.85 in 10.0 mi WNW 15.0 mph - N/A   Clear
9:53 PM 35.6 °F 26.6 °F 15.8 °F 44% 29.84 in 10.0 mi WNW 13.8 mph - N/A   Clear
10:53 PM 34.0 °F 25.5 °F 16.0 °F 48% 29.91 in 10.0 mi WNW 11.5 mph - N/A   Clear
11:53 PM 28.9 °F 21.1 °F 17.1 °F 61% 29.92 in 10.0 mi West 8.1 mph - N/A   Clear